Location: Kelshall
(52.0000°N, 0.0500°W)
Time: 08:48:01
(UTC+00:00)

Meteor 1-15 Rocket - Pass Details

Date: 20 January 2021
Orbit: 840 x 907 km, 81.2° (Epoch: 24 February)

Event Time Altitude Azimuth Distance (km) Brightness Sun altitude
Exits shadow 05:52:51 22° 320° (NW) 1,785 5.5 -18.5°
Drops below altitude 10° 05:56:09 10° 354° (N) 2,518 6.5 -18.0°
Sets 05:59:06 0° 8° (N) 3,472 7.4 -17.5°
